Time,TemperatureF,DewpointF,PressureIn,WindDirection,WindDirectionDegrees,WindSpeedMPH,WindSpeedGustMPH,Humidity,HourlyPrecipIn,Conditions,Clouds,dailyrainin,SoftwareType,DateUTC
2013-10-30 00:02:00,78.1,68.0,30.22,East,93,4.0,13.0,72,0.00,,,0.00,weatherlink.com 1.10,2013-10-30 04:02:00,
2013-10-30 00:17:00,78.1,68.0,30.22,ENE,73,9.0,15.0,70,0.00,,,0.00,weatherlink.com 1.10,2013-10-30 04:17:00,
2013-10-30 00:32:00,78.0,68.0,30.21,East,81,9.0,15.0,71,0.00,,,0.00,weatherlink.com 1.10,2013-10-30 04:32:00,
2013-10-30 00:47:00,77.9,67.0,30.21,ENE,65,8.0,16.0,69,0.00,,,0.00,weatherlink.com 1.10,2013-10-30 04:47:00,
2013-10-30 01:02:00,77.9,67.0,30.21,ENE,59,8.0,12.0,68,0.00,,,0.00,weatherlink.com 1.10,2013-10-30 05:02:00,
2013-10-30 01:17:00,77.9,67.0,30.21,East,88,9.0,15.0,70,0.00,,,0.00,weatherlink.com 1.10,2013-10-30 05:17:00,
2013-10-30 01:32:00,77.8,68.0,30.20,ENE,71,8.0,12.0,71,0.00,,,0.00,weatherlink.com 1.10,2013-10-30 05:32:00,
2013-10-30 01:47:00,77.7,67.0,30.20,ENE,71,7.0,12.0,70,0.00,,,0.00,weatherlink.com 1.10,2013-10-30 05:47:00,
2013-10-30 02:02:00,77.7,68.0,30.20,ENE,72,5.0,14.0,71,0.00,,,0.00,weatherlink.com 1.10,2013-10-30 06:02:00,
2013-10-30 02:17:00,77.7,67.0,30.19,NE,46,6.0,12.0,70,0.00,,,0.00,weatherlink.com 1.10,2013-10-30 06:17:00,
2013-10-30 02:32:00,77.6,68.0,30.19,ENE,58,8.0,14.0,71,0.00,,,0.00,weatherlink.com 1.10,2013-10-30 06:32:00,
2013-10-30 02:47:00,77.5,67.0,30.19,NE,55,7.0,13.0,69,0.00,,,0.00,weatherlink.com 1.10,2013-10-30 06:47:00,
2013-10-30 03:02:00,77.3,67.0,30.18,ENE,75,12.0,13.0,71,0.00,,,0.00,weatherlink.com 1.10,2013-10-30 07:02:00,
2013-10-30 03:17:00,77.1,68.0,30.18,East,89,7.0,9.0,73,0.00,,,0.00,weatherlink.com 1.10,2013-10-30 07:17:00,
2013-10-30 03:32:00,77.1,67.0,30.18,ENE,64,9.0,12.0,72,0.00,,,0.00,weatherlink.com 1.10,2013-10-30 07:32:00,
2013-10-30 03:47:00,77.0,67.0,30.18,ENE,62,6.0,10.0,71,0.00,,,0.00,weatherlink.com 1.10,2013-10-30 07:47:00,
2013-10-30 04:02:00,77.0,67.0,30.18,ENE,74,5.0,10.0,72,0.00,,,0.00,weatherlink.com 1.10,2013-10-30 08:02:00,
2013-10-30 04:17:00,77.1,68.0,30.18,NE,54,3.0,11.0,74,0.00,,,0.00,weatherlink.com 1.10,2013-10-30 08:17:00,
2013-10-30 04:32:00,77.0,68.0,30.18,ENE,58,5.0,9.0,73,0.00,,,0.00,weatherlink.com 1.10,2013-10-30 08:32:00,
2013-10-30 04:47:00,77.0,67.0,30.17,ENE,69,5.0,9.0,71,0.00,,,0.00,weatherlink.com 1.10,2013-10-30 08:47:00,
2013-10-30 05:02:00,77.1,67.0,30.17,ENE,71,4.0,9.0,72,0.00,,,0.00,weatherlink.com 1.10,2013-10-30 09:02:00,
2013-10-30 05:17:00,76.8,67.0,30.18,ENE,70,3.0,7.0,72,0.00,,,0.00,weatherlink.com 1.10,2013-10-30 09:17:00,
2013-10-30 05:32:00,77.1,67.0,30.18,ENE,65,5.0,10.0,71,0.00,,,0.00,weatherlink.com 1.10,2013-10-30 09:32:00,
2013-10-30 05:47:00,77.2,68.0,30.19,ENE,74,7.0,10.0,73,0.00,,,0.00,weatherlink.com 1.10,2013-10-30 09:47:00,
2013-10-30 06:02:00,77.1,67.0,30.19,NE,49,5.0,10.0,71,0.00,,,0.00,weatherlink.com 1.10,2013-10-30 10:02:00,
2013-10-30 06:17:00,77.1,66.0,30.19,East,82,3.0,10.0,69,0.00,,,0.00,weatherlink.com 1.10,2013-10-30 10:17:00,
2013-10-30 06:32:00,76.9,67.0,30.19,ENE,58,5.0,8.0,71,0.00,,,0.00,weatherlink.com 1.10,2013-10-30 10:32:00,
2013-10-30 06:47:00,77.0,67.0,30.20,ENE,60,3.0,9.0,72,0.00,,,0.00,weatherlink.com 1.10,2013-10-30 10:47:00,
2013-10-30 07:02:00,77.0,67.0,30.20,NE,53,6.0,9.0,72,0.00,,,0.00,weatherlink.com 1.10,2013-10-30 11:02:00,
2013-10-30 07:17:00,76.9,67.0,30.21,NE,51,7.0,10.0,72,0.00,,,0.00,weatherlink.com 1.10,2013-10-30 11:17:00,
2013-10-30 07:32:00,76.9,67.0,30.21,NE,56,7.0,8.0,72,0.00,,,0.00,weatherlink.com 1.10,2013-10-30 11:32:00,
2013-10-30 07:47:00,76.9,68.0,30.21,ENE,68,6.0,10.0,73,0.00,,,0.00,weatherlink.com 1.10,2013-10-30 11:47:00,
2013-10-30 08:03:00,77.7,68.0,30.21,ENE,60,6.0,9.0,71,0.00,,,0.00,weatherlink.com 1.10,2013-10-30 12:03:00,
2013-10-30 08:17:00,78.2,67.0,30.21,ENE,64,6.0,10.0,69,0.00,,,0.00,weatherlink.com 1.10,2013-10-30 12:17:00,
2013-10-30 08:33:00,78.2,68.0,30.22,ENE,77,7.0,9.0,70,0.00,,,0.00,weatherlink.com 1.10,2013-10-30 12:33:00,
2013-10-30 08:47:00,78.7,68.0,30.22,NNE,15,6.0,10.0,70,0.00,,,0.00,weatherlink.com 1.10,2013-10-30 12:47:00,
2013-10-30 09:30:00,79.2,68.0,30.23,East,82,8.0,13.0,68,0.00,,,0.00,weatherlink.com 1.10,2013-10-30 13:30:00,
2013-10-30 09:48:00,79.7,68.0,30.23,East,89,8.0,12.0,67,0.00,,,0.00,weatherlink.com 1.10,2013-10-30 13:48:00,
2013-10-30 10:03:00,78.9,68.0,30.23,ENE,74,8.0,12.0,70,0.00,,,0.00,weatherlink.com 1.10,2013-10-30 14:03:00,
2013-10-30 10:18:00,79.3,70.0,30.24,ENE,65,6.0,12.0,72,0.00,,,0.00,weatherlink.com 1.10,2013-10-30 14:18:00,
2013-10-30 10:33:00,79.8,69.0,30.24,East,81,11.0,15.0,69,0.00,,,0.00,weatherlink.com 1.10,2013-10-30 14:33:00,
2013-10-30 10:48:00,79.8,67.0,30.24,ENE,60,10.0,13.0,66,0.00,,,0.00,weatherlink.com 1.10,2013-10-30 14:48:00,
2013-10-30 11:03:00,80.1,68.0,30.24,ENE,59,9.0,12.0,67,0.00,,,0.00,weatherlink.com 1.10,2013-10-30 15:03:00,
2013-10-30 11:18:00,80.4,68.0,30.25,NE,51,6.0,14.0,66,0.00,,,0.00,weatherlink.com 1.10,2013-10-30 15:18:00,
2013-10-30 11:33:00,80.3,69.0,30.24,NE,46,6.0,15.0,69,0.00,,,0.00,weatherlink.com 1.10,2013-10-30 15:33:00,
2013-10-30 11:48:00,80.6,68.0,30.24,NNE,25,5.0,15.0,66,0.00,,,0.00,weatherlink.com 1.10,2013-10-30 15:48:00,
2013-10-30 12:03:00,80.9,68.0,30.24,NE,56,12.0,14.0,65,0.00,,,0.00,weatherlink.com 1.10,2013-10-30 16:03:00,
2013-10-30 12:18:00,80.5,69.0,30.24,NE,55,9.0,13.0,69,0.00,,,0.00,weatherlink.com 1.10,2013-10-30 16:18:00,
2013-10-30 12:48:00,80.8,69.0,30.23,NE,55,10.0,13.0,67,0.00,,,0.00,weatherlink.com 1.10,2013-10-30 16:48:00,
2013-10-30 13:03:00,80.8,68.0,30.22,East,81,9.0,14.0,65,0.00,,,0.00,weatherlink.com 1.10,2013-10-30 17:03:00,
2013-10-30 13:18:00,80.5,68.0,30.21,NE,43,10.0,12.0,65,0.00,,,0.00,weatherlink.com 1.10,2013-10-30 17:18:00,
2013-10-30 13:33:00,80.6,69.0,30.20,NE,56,11.0,16.0,67,0.00,,,0.00,weatherlink.com 1.10,2013-10-30 17:33:00,
2013-10-30 13:48:00,80.4,69.0,30.19,NE,53,10.0,16.0,69,0.00,,,0.00,weatherlink.com 1.10,2013-10-30 17:48:00,
2013-10-30 14:03:00,80.6,69.0,30.18,East,79,8.0,13.0,68,0.00,,,0.00,weatherlink.com 1.10,2013-10-30 18:03:00,
2013-10-30 14:18:00,80.6,68.0,30.18,ENE,72,14.0,14.0,66,0.00,,,0.00,weatherlink.com 1.10,2013-10-30 18:18:00,
2013-10-30 14:33:00,80.6,68.0,30.17,ENE,64,13.0,17.0,65,0.00,,,0.00,weatherlink.com 1.10,2013-10-30 18:33:00,
2013-10-30 14:48:00,80.7,68.0,30.17,NE,41,8.0,16.0,66,0.00,,,0.00,weatherlink.com 1.10,2013-10-30 18:48:00,
2013-10-30 15:03:00,80.5,68.0,30.16,NE,53,6.0,16.0,66,0.00,,,0.00,weatherlink.com 1.10,2013-10-30 19:03:00,
2013-10-30 15:18:00,80.7,68.0,30.16,ENE,65,10.0,13.0,66,0.00,,,0.00,weatherlink.com 1.10,2013-10-30 19:18:00,
2013-10-30 15:33:00,80.4,68.0,30.16,NE,43,9.0,15.0,67,0.00,,,0.00,weatherlink.com 1.10,2013-10-30 19:33:00,
2013-10-30 15:48:00,80.5,69.0,30.16,ENE,72,9.0,14.0,67,0.00,,,0.00,weatherlink.com 1.10,2013-10-30 19:48:00,
2013-10-30 16:04:00,80.5,68.0,30.17,ENE,60,8.0,14.0,66,0.00,,,0.00,weatherlink.com 1.10,2013-10-30 20:04:00,
2013-10-30 16:18:00,79.9,69.0,30.16,NE,34,7.0,13.0,69,0.00,,,0.00,weatherlink.com 1.10,2013-10-30 20:18:00,
2013-10-30 16:33:00,79.6,69.0,30.16,NE,47,7.0,14.0,70,0.00,,,0.00,weatherlink.com 1.10,2013-10-30 20:33:00,
2013-10-30 16:48:00,79.8,70.0,30.16,NE,53,7.0,10.0,72,0.00,,,0.00,weatherlink.com 1.10,2013-10-30 20:48:00,
2013-10-30 17:03:00,79.3,68.0,30.16,NNE,33,6.0,13.0,69,0.00,,,0.00,weatherlink.com 1.10,2013-10-30 21:03:00,
2013-10-30 17:18:00,80.0,69.0,30.16,NE,51,6.0,13.0,70,0.00,,,0.00,weatherlink.com 1.10,2013-10-30 21:18:00,
2013-10-30 17:33:00,79.8,69.0,30.15,NE,39,13.0,13.0,70,0.00,,,0.00,weatherlink.com 1.10,2013-10-30 21:33:00,
2013-10-30 17:48:00,79.1,70.0,30.15,NE,56,7.0,13.0,73,0.00,,,0.00,weatherlink.com 1.10,2013-10-30 21:48:00,
2013-10-30 18:03:00,78.8,70.0,30.15,NNE,33,5.0,13.0,74,0.00,,,0.00,weatherlink.com 1.10,2013-10-30 22:03:00,
2013-10-30 18:18:00,78.7,69.0,30.15,ENE,60,5.0,15.0,71,0.00,,,0.00,weatherlink.com 1.10,2013-10-30 22:18:00,
2013-10-30 18:33:00,78.5,68.0,30.16,NE,56,6.0,15.0,70,0.00,,,0.00,weatherlink.com 1.10,2013-10-30 22:33:00,
2013-10-30 18:48:00,78.5,67.0,30.16,East,86,12.0,14.0,68,0.00,,,0.00,weatherlink.com 1.10,2013-10-30 22:48:00,
2013-10-30 19:03:00,78.4,67.0,30.16,ENE,58,6.0,15.0,68,0.00,,,0.00,weatherlink.com 1.10,2013-10-30 23:03:00,
2013-10-30 19:18:00,78.3,68.0,30.16,North,1,7.0,17.0,71,0.00,,,0.00,weatherlink.com 1.10,2013-10-30 23:18:00,
2013-10-30 19:33:00,78.3,69.0,30.17,NE,53,6.0,16.0,72,0.00,,,0.00,weatherlink.com 1.10,2013-10-30 23:33:00,
2013-10-30 19:48:00,78.3,69.0,30.17,ENE,64,7.0,17.0,74,0.00,,,0.00,weatherlink.com 1.10,2013-10-30 23:48:00,
2013-10-30 20:03:00,78.3,69.0,30.18,NE,53,7.0,14.0,74,0.00,,,0.00,weatherlink.com 1.10,2013-10-31 00:03:00,
2013-10-30 20:18:00,78.3,70.0,30.18,ENE,62,5.0,15.0,76,0.00,,,0.00,weatherlink.com 1.10,2013-10-31 00:18:00,
2013-10-30 20:33:00,78.3,69.0,30.18,NE,56,7.0,16.0,73,0.00,,,0.00,weatherlink.com 1.10,2013-10-31 00:33:00,
2013-10-30 20:48:00,78.2,70.0,30.18,NE,44,7.0,14.0,75,0.00,,,0.00,weatherlink.com 1.10,2013-10-31 00:48:00,
2013-10-30 21:03:00,78.3,69.0,30.18,NE,37,6.0,14.0,73,0.00,,,0.00,weatherlink.com 1.10,2013-10-31 01:03:00,
2013-10-30 21:33:00,78.1,68.0,30.18,ENE,76,11.0,14.0,71,0.00,,,0.00,weatherlink.com 1.10,2013-10-31 01:33:00,
2013-10-30 21:49:00,78.3,68.0,30.18,ENE,60,7.0,14.0,71,0.00,,,0.00,weatherlink.com 1.10,2013-10-31 01:49:00,
2013-10-30 22:04:00,78.0,68.0,30.18,ENE,64,5.0,14.0,72,0.00,,,0.00,weatherlink.com 1.10,2013-10-31 02:04:00,
2013-10-30 22:19:00,78.0,69.0,30.19,ENE,72,9.0,14.0,73,0.00,,,0.00,weatherlink.com 1.10,2013-10-31 02:19:00,
2013-10-30 22:34:00,78.0,68.0,30.19,NE,54,13.0,17.0,72,0.00,,,0.00,weatherlink.com 1.10,2013-10-31 02:34:00,
2013-10-30 22:49:00,77.9,68.0,30.19,East,91,10.0,14.0,71,0.00,,,0.00,weatherlink.com 1.10,2013-10-31 02:49:00,
2013-10-30 23:04:00,77.9,68.0,30.18,ENE,74,12.0,15.0,71,0.00,,,0.00,weatherlink.com 1.10,2013-10-31 03:04:00,
2013-10-30 23:19:00,77.7,68.0,30.18,East,81,9.0,12.0,71,0.00,,,0.00,weatherlink.com 1.10,2013-10-31 03:19:00,
2013-10-30 23:34:00,77.8,68.0,30.18,East,81,12.0,14.0,71,0.00,,,0.00,weatherlink.com 1.10,2013-10-31 03:34:00,
2013-10-30 23:49:00,77.7,67.0,30.18,ENE,75,11.0,16.0,70,0.00,,,0.00,weatherlink.com 1.10,2013-10-31 03:49:00,